Wind_Speed
18 21 19 18 23 23 16 17 15 10 9 8 9 7 9 7 8 10 10 13 11 11 14 15 15 14 15 16 16 15 14 14 13 11 11 12 12 12 13 12 12 11 10 9 9 7 7 8 7
12 18 17 19 26 22 21 17 15 14 10 9 7 6 7 8 6 7 9 10 12 10 13 14 14 13 14 15 15 14 14 14 13 10 9 9 9 10 11 11 10 10 8 8 7 6 5 6 6
14 17 20 23 24 20 20 22 17 13 13 7 5 5 5 6 6 5 7 9 11 9 11 12 13 14 13 13 13 13 15 13 12 11 10 9 8 9 9 9 8 8 5 4 4 4 4 4 5
15 16 20 25 19 20 18 18 18 15 13 11 7 6 5 4 9 7 6 7 10 8 9 12 13 13 12 12 13 14 14 13 12 11 10 10 9 8 9 9 8 7 6 5 5 4 3 3 3
15 14 24 19 18 18 18 15 16 18 17 14 11 7 6 6 7 8 5 6 8 7 7 10 11 12 11 11 12 12 12 12 11 11 10 11 10 9 8 9 8 7 6 6 6 6 5 3 1
17 14 16 16 14 17 18 16 14 16 16 14 12 10 8 4 7 7 6 4 6 6 6 8 10 10 11 10 10 10 9 9 9 9 8 8 7 7 8 8 8 7 7 6 5 5 5 4 3
17 18 15 14 14 19 19 15 17 17 16 15 14 11 10 7 4 6 5 6 5 5 5 7 9 10 10 9 8 7 7 6 6 6 6 6 5 6 6 7 7 6 5 4 4 4 4 3 3
12 12 13 12 13 17 19 17 17 18 17 14 13 13 10 9 5 2 4 5 6 6 6 7 8 9 9 7 6 6 6 5 5 5 5 4 4 5 6 5 3 5 3 3 3 3 2 3 3
9 11 12 12 12 15 20 20 21 18 17 18 13 13 12 9 6 3 2 3 5 7 8 8 8 8 8 6 5 5 6 6 5 4 3 4 3 6 5 5 3 3 3 2 1 2 2 2 3
7 9 11 13 13 18 21 21 21 22 20 17 18 14 11 9 7 3 1 3 4 6 7 8 9 7 6 6 5 5 5 3 4 4 4 6 2 7 6 4 4 3 3 2 1 3 5 5 5
7 8 9 11 12 17 19 20 21 20 22 20 16 14 13 9 7 6 2 4 5 6 6 7 7 7 6 5 6 5 4 3 3 3 4 4 3 7 6 5 4 4 1 1 3 4 5 7 6
9 7 7 6 9 12 15 17 20 21 18 21 18 15 13 11 8 7 4 4 6 7 6 6 7 5 5 6 5 6 5 3 2 1 2 4 4 2 2 5 5 4 2 1 6 5 6 5 6
10 8 6 6 8 9 11 13 16 19 17 17 18 16 15 14 11 9 7 2 5 7 6 7 7 7 7 6 5 5 6 5 4 5 3 2 2 3 4 4 8 7 7 6 9 8 11 10 8
8 7 6 4 6 6 8 10 12 14 15 17 18 15 16 16 14 11 7 3 1 5 7 8 8 8 8 7 5 4 5 6 6 5 3 3 3 5 6 4 5 8 9 13 19 14 15 10 10
7 5 3 7 5 6 5 8 9 10 12 15 18 15 15 17 16 13 12 9 2 5 7 11 12 11 10 8 6 5 5 5 5 4 4 4 5 7 7 5 9 11 11 12 12 12 7 11 12
5 4 1 6 10 7 3 2 4 9 11 14 16 17 14 16 18 16 16 14 10 2 7 11 11 10 9 9 8 6 7 6 5 6 6 7 8 9 9 8 9 11 12 10 12 11 10 8 9
4 5 7 8 10 8 5 2 2 6 11 13 15 16 14 14 17 19 18 15 13 8 1 4 8 8 8 10 9 7 6 6 8 9 9 8 7 9 10 11 12 14 15 15 13 11 7 10 9
16 5 10 12 12 9 6 5 3 2 7 11 14 15 15 11 15 17 18 17 14 11 7 3 4 6 8 8 7 6 4 5 7 7 5 5 6 7 8 9 10 12 13 14 11 11 9 8 10
15 9 11 17 17 11 5 6 8 6 1 7 12 16 16 10 11 14 16 17 15 12 11 8 2 4 7 11 7 4 6 4 8 8 3 1 1 3 3 4 6 9 11 12 11 10 8 8 9
15 12 10 13 20 14 11 9 11 9 5 6 10 15 17 12 11 9 12 13 13 13 11 9 7 6 6 8 11 10 5 5 6 6 5 5 3 3 3 3 4 5 6 6 4 4 5 6 8
17 17 13 20 11 11 11 9 8 12 7 5 7 12 14 11 10 6 7 7 7 8 7 7 8 7 6 6 6 6 6 5 3 4 5 4 5 2 2 3 4 5 4 4 3 2 1 3 3
20 20 19 17 15 9 9 9 13 14 16 14 12 13 13 10 8 6 7 8 6 6 4 4 3 3 2 0 1 1 1 2 3 4 6 5 6 6 5 3 3 3 4 4 3 2 2 3 2
21 25 20 21 20 16 10 13 9 16 15 15 16 13 13 13 8 6 9 11 11 10 8 5 4 3 3 4 5 6 7 7 7 7 9 10 8 7 7 7 6 4 4 5 3 2 1 1 3
24 22 20 22 19 19 13 18 9 11 11 12 13 14 12 14 11 9 12 12 13 12 9 10 10 10 7 7 10 10 9 9 10 10 13 13 13 10 8 7 7 6 5 5 4 3 4 5 5
24 22 22 21 20 18 17 19 12 14 13 15 17 17 14 12 10 6 8 10 13 11 11 11 13 14 12 12 12 12 10 9 11 11 11 12 12 13 13 12 10 8 7 6 6 7 8 10 10
22 24 21 21 19 14 26 22 14 14 12 17 16 15 12 13 11 9 8 7 12 11 12 14 13 15 15 15 14 14 13 12 12 11 11 11 12 14 15 16 15 13 11 10 10 11 12 13 14
22 24 18 21 21 21 19 16 13 10 11 13 11 15 14 17 13 8 7 6 12 11 16 19 15 15 15 15 15 16 16 16 15 11 11 13 14 18 19 16 16 15 16 16 15 15 15 15 15
25 22 24 23 22 21 17 19 14 12 11 10 10 16 17 19 18 11 10 10 14 16 21 16 16 17 16 16 17 17 18 16 14 13 13 12 13 17 19 18 15 17 18 20 20 20 20 20 20
22 23 23 18 20 19 18 16 16 15 17 16 15 16 10 18 17 14 16 16 19 24 22 17 16 18 19 17 18 19 20 18 16 15 16 16 14 17 20 20 19 18 21 22 23 25 26 25 25
21 21 20 20 20 19 21 21 17 15 19 20 17 18 10 13 15 16 18 19 22 23 21 20 18 19 18 20 21 22 23 24 22 21 17 18 19 19 20 20 20 22 22 23 24 26 27 28 28
Wind_Direction
65 55 54 68 73 70 68 62 66 80 74 92 80 109 118 110 101 101 97 104 97 94 99 104 103 106 112 115 110 113 115 118 113 116 107 104 104 106 113 126 121 114 108 100 86 78 76 79 78
52 52 51 56 65 62 63 67 71 76 76 80 91 94 110 119 108 103 104 105 106 108 103 108 110 109 112 117 121 120 116 112 117 117 116 121 120 119 117 114 115 114 111 105 92 79 91 89 83
58 53 60 63 62 54 52 59 57 65 75 76 95 109 112 132 122 106 108 103 107 110 112 108 116 114 116 117 119 118 109 111 121 128 131 123 136 138 126 113 104 99 106 114 108 78 78 88 78
62 60 61 69 65 57 53 58 69 69 74 79 95 116 141 168 133 118 123 110 101 110 115 116 117 111 114 119 117 115 114 118 118 123 121 125 125 125 124 119 110 104 107 98 91 88 98 94 84
69 69 66 59 60 54 45 48 62 70 70 72 72 84 129 161 155 137 149 136 106 109 121 125 127 125 118 124 124 123 123 120 116 114 117 115 116 118 120 113 114 108 98 89 75 63 54 58 76
72 70 69 65 48 46 41 35 54 64 66 69 73 71 77 125 163 162 163 172 139 120 129 140 143 140 136 134 135 132 133 126 118 114 111 114 108 114 116 115 113 112 113 104 84 66 54 52 39
82 79 85 65 40 42 39 38 43 53 53 60 66 69 75 80 143 155 178 201 176 151 137 149 156 158 156 148 145 142 136 132 126 132 121 114 113 120 124 120 112 106 106 104 96 73 45 29 48
81 90 81 61 52 43 42 35 38 44 50 58 68 68 75 82 93 144 181 195 204 180 171 160 163 171 172 166 160 145 130 125 121 114 122 114 134 145 147 142 134 119 88 77 42 32 26 359 355
68 75 82 78 61 52 53 48 42 43 40 46 56 64 68 71 79 104 145 209 217 200 187 189 176 177 182 179 171 143 129 109 113 108 107 108 167 169 168 187 166 153 163 209 39 344 337 332 311
81 101 102 86 69 59 57 57 53 46 45 42 42 46 49 63 68 67 172 204 221 221 202 205 199 191 195 194 191 168 138 116 97 74 70 74 137 190 180 187 166 159 142 79 15 331 336 328 310
106 123 112 98 87 71 57 57 55 53 47 47 45 48 41 42 47 58 348 243 231 236 211 217 221 216 218 225 211 210 170 142 107 91 67 49 31 140 206 198 186 164 140 83 355 314 314 316 316
124 128 121 110 95 84 66 50 49 51 49 48 45 44 38 34 45 46 15 251 239 234 235 225 221 222 231 230 235 228 232 208 187 182 133 79 100 130 225 202 217 189 228 130 271 314 323 339 337
136 144 136 123 112 90 75 54 45 44 50 43 40 38 37 38 35 44 27 334 222 219 221 222 217 210 218 224 230 235 219 215 203 218 222 165 170 187 216 266 233 236 251 256 262 261 278 287 305
131 132 177 162 125 100 86 61 39 37 41 39 35 32 27 33 37 46 42 35 45 208 214 212 211 207 213 219 216 225 216 215 222 228 237 252 250 260 261 277 274 268 263 276 318 259 262 280 297
136 133 145 180 169 140 108 71 36 24 24 35 37 28 24 26 37 45 53 35 309 216 211 216 208 204 205 207 208 220 219 223 232 239 248 261 260 259 268 278 290 288 294 302 313 334 306 288 290
136 126 285 190 186 179 168 41 43 29 13 4 22 23 19 23 25 43 37 39 29 205 207 222 217 207 203 201 205 222 232 226 233 240 245 262 277 283 284 281 296 299 292 301 312 311 319 323 306
213 228 195 198 182 185 185 212 5 38 22 4 7 18 16 21 23 33 36 34 26 37 70 223 205 214 209 197 199 210 226 246 248 257 262 261 268 285 289 290 297 294 290 292 299 296 314 309 318
248 208 198 197 187 186 199 237 252 50 35 20 4 9 16 16 22 26 37 39 37 35 40 104 201 224 232 228 222 214 216 243 258 251 263 260 264 276 289 296 298 300 295 299 286 287 301 304 317
229 221 198 208 205 211 195 273 240 232 45 8 357 2 9 19 15 22 29 39 43 50 52 43 353 253 244 223 201 167 143 82 62 68 69 80 246 281 346 338 297 291 299 298 287 264 289 299 317
229 231 250 212 215 224 228 233 249 229 258 336 343 347 360 14 5 17 22 27 39 48 57 66 79 84 109 130 131 132 120 62 34 28 28 359 343 24 20 17 6 4 346 334 288 253 269 301 314
232 230 235 245 210 210 221 214 252 243 256 276 312 351 353 360 357 334 345 355 9 30 42 58 74 83 97 116 124 116 100 61 45 328 299 297 301 330 354 351 8 22 5 25 40 45 341 319 316
232 243 237 248 244 250 213 218 255 256 284 269 292 333 339 332 354 335 340 343 318 313 336 18 59 95 92 323 45 96 145 212 265 299 310 313 293 288 285 297 335 352 5 19 33 53 39 12 18
231 237 238 242 247 264 248 234 239 270 277 283 273 301 306 325 296 292 306 315 323 316 280 276 269 265 257 257 252 258 254 264 274 287 286 278 278 292 302 292 286 290 305 307 319 5 37 357 327
232 244 241 244 249 253 263 250 248 264 274 276 274 279 294 298 293 285 309 326 321 310 292 264 270 274 281 289 277 267 266 270 275 272 275 280 275 270 270 274 268 260 252 260 257 251 266 279 285
243 244 239 244 243 257 248 256 240 232 270 273 283 285 273 288 286 308 340 325 320 312 306 291 265 269 273 277 274 273 266 268 272 275 282 281 291 288 275 264 260 259 242 237 254 268 281 290 291
234 237 231 237 243 253 257 261 260 252 265 276 274 283 261 265 261 282 308 323 323 328 301 286 280 267 260 265 266 268 265 265 266 272 285 298 312 309 297 280 260 254 255 258 265 274 281 286 289
237 233 230 231 242 228 237 273 252 272 265 260 274 277 266 251 246 250 279 283 328 300 310 278 274 270 262 257 262 269 263 259 267 272 292 307 317 317 323 304 261 250 260 265 268 270 272 273 273
236 229 230 232 227 245 253 267 255 259 242 257 279 271 277 255 240 234 262 292 298 304 309 262 263 270 265 255 257 255 259 263 263 282 291 295 305 309 314 316 296 263 260 265 270 276 279 280 274
238 239 237 221 238 240 259 267 266 255 228 236 250 268 285 245 233 243 271 291 296 296 301 277 259 267 269 269 265 263 259 255 256 265 275 279 287 297 300 302 297 285 275 273 276 281 286 286 281
240 232 231 236 241 256 245 238 256 269 229 235 242 254 238 237 244 263 279 284 285 291 294 279 263 270 272 275 274 275 267 258 253 252 262 278 288 294 301 293 291 288 284 282 281 280 281 283 286
Height
5908 5907 5906 5905 5905 5903 5903 5901 5898 5898 5897 5897 5896 5896 5896 5896 5896 5898 5896 5895 5895 5894 5893 5892 5892 5894 5895 5895 5895 5895 5895 5896 5897 5899 5899 5899 5899 5900 5901 5902 5901 5902 5903 5902 5902 5902 5901 5900 5900
5912 5910 5909 5907 5906 5908 5906 5903 5900 5899 5898 5898 5898 5898 5898 5898 5898 5898 5897 5897 5896 5897 5896 5895 5896 5896 5897 5898 5898 5898 5898 5898 5899 5900 5900 5901 5901 5902 5903 5904 5903 5904 5904 5903 5903 5903 5903 5902 5901
5914 5913 5912 5908 5908 5907 5905 5903 5902 5900 5899 5898 5899 5899 5899 5899 5899 5900 5899 5899 5898 5899 5898 5899 5898 5899 5900 5900 5900 5900 5900 5900 5901 5901 5902 5902 5903 5904 5904 5904 5904 5903 5904 5905 5905 5904 5904 5904 5903
5916 5916 5914 5913 5911 5909 5906 5904 5903 5902 5900 5900 5900 5899 5900 5900 5900 5901 5901 5901 5899 5900 5900 5901 5901 5901 5902 5903 5903 5902 5902 5903 5902 5903 5904 5904 5905 5905 5905 5905 5905 5905 5906 5906 5905 5905 5905 5904 5904
5918 5917 5916 5917 5914 5911 5908 5906 5905 5903 5902 5900 5899 5899 5900 5900 5901 5901 5902 5902 5902 5902 5902 5902 5903 5903 5905 5905 5905 5905 5905 5905 5905 5905 5906 5906 5906 5906 5907 5906 5906 5906 5907 5906 5906 5906 5906 5905 5904
5919 5919 5924 5920 5917 5913 5911 5908 5907 5905 5903 5901 5900 5899 5899 5900 5901 5902 5903 5903 5903 5904 5904 5904 5904 5905 5905 5906 5907 5907 5907 5908 5907 5907 5907 5907 5908 5908 5908 5907 5907 5907 5907 5907 5907 5907 5906 5906 5905
5922 5920 5923 5920 5918 5915 5912 5910 5908 5907 5904 5903 5901 5900 5900 5899 5901 5902 5903 5904 5904 5904 5905 5906 5906 5906 5907 5907 5908 5908 5908 5908 5908 5908 5908 5908 5909 5909 5909 5908 5907 5908 5908 5908 5907 5907 5907 5907 5906
5924 5924 5925 5923 5919 5917 5915 5912 5911 5909 5907 5905 5903 5902 5901 5901 5901 5902 5903 5904 5905 5905 5905 5906 5907 5907 5908 5908 5908 5908 5909 5909 5909 5909 5908 5908 5908 5909 5909 5909 5909 5908 5909 5909 5908 5907 5907 5907 5906
5927 5926 5927 5925 5922 5920 5917 5915 5913 5911 5909 5906 5905 5903 5902 5901 5901 5901 5902 5903 5904 5904 5905 5906 5907 5908 5908 5908 5908 5909 5910 5909 5910 5909 5908 5909 5908 5908 5908 5909 5909 5910 5909 5909 5908 5907 5907 5906 5905
5928 5927 5927 5926 5924 5922 5920 5917 5915 5912 5910 5908 5906 5905 5903 5902 5901 5901 5901 5902 5903 5904 5905 5906 5907 5908 5909 5909 5909 5910 5910 5910 5910 5910 5909 5908 5907 5907 5908 5909 5909 5909 5910 5909 5907 5907 5906 5906 5905
5929 5929 5928 5927 5925 5923 5921 5919 5917 5914 5911 5909 5908 5906 5905 5903 5902 5900 5901 5901 5902 5904 5904 5906 5907 5908 5908 5909 5910 5910 5910 5909 5910 5910 5909 5908 5907 5907 5907 5908 5909 5909 5909 5909 5908 5907 5905 5905 5904
5930 5930 5930 5928 5926 5924 5921 5920 5918 5916 5915 5912 5910 5908 5906 5904 5903 5901 5900 5900 5900 5902 5904 5905 5906 5907 5908 5908 5909 5910 5910 5909 5910 5910 5909 5908 5907 5907 5907 5908 5908 5908 5908 5907 5907 5907 5906 5905 5904
5930 5930 5930 5929 5928 5925 5923 5921 5919 5917 5916 5914 5912 5910 5907 5905 5903 5901 5900 5899 5899 5900 5901 5903 5904 5906 5907 5907 5909 5909 5909 5909 5909 5908 5908 5908 5908 5907 5907 5907 5907 5907 5906 5906 5906 5904 5904 5904 5904
5929 5930 5930 5929 5928 5927 5925 5922 5920 5918 5916 5915 5913 5911 5909 5906 5903 5901 5899 5898 5898 5898 5900 5902 5903 5904 5905 5906 5907 5909 5909 5909 5909 5908 5908 5908 5908 5908 5907 5907 5907 5906 5906 5905 5903 5902 5902 5902 5902
5928 5929 5929 5929 5929 5928 5926 5924 5921 5919 5916 5915 5914 5912 5910 5908 5904 5902 5900 5899 5898 5898 5898 5900 5901 5901 5903 5905 5906 5907 5908 5908 5908 5908 5908 5907 5907 5907 5907 5907 5906 5905 5904 5903 5901 5899 5899 5900 5900
5927 5928 5931 5928 5928 5928 5927 5926 5923 5920 5918 5915 5914 5913 5911 5909 5906 5903 5900 5899 5898 5897 5897 5897 5899 5900 5902 5903 5905 5906 5908 5908 5908 5908 5908 5907 5906 5906 5906 5904 5903 5902 5901 5901 5900 5899 5898 5898 5897
5926 5931 5927 5927 5927 5928 5928 5926 5924 5922 5919 5916 5915 5914 5912 5910 5908 5905 5902 5900 5898 5897 5896 5897 5899 5900 5901 5902 5903 5904 5906 5907 5908 5907 5906 5906 5905 5904 5904 5902 5901 5900 5899 5899 5898 5897 5897 5896 5896
5928 5927 5926 5925 5927 5927 5928 5927 5925 5923 5921 5918 5916 5914 5913 5911 5910 5908 5905 5903 5901 5899 5898 5899 5900 5901 5902 5903 5904 5903 5905 5905 5905 5905 5904 5903 5902 5901 5900 5899 5899 5897 5896 5895 5896 5895 5894 5894 5893
5920 5922 5924 5924 5925 5926 5927 5927 5926 5923 5922 5920 5917 5916 5914 5913 5912 5910 5908 5906 5904 5902 5902 5902 5901 5901 5901 5902 5903 5904 5904 5905 5904 5902 5903 5901 5900 5899 5898 5896 5896 5894 5893 5892 5892 5892 5893 5892 5891
5916 5919 5923 5923 5923 5925 5926 5925 5925 5924 5922 5921 5919 5917 5916 5914 5913 5912 5911 5909 5908 5906 5905 5905 5903 5903 5903 5903 5903 5903 5903 5903 5902 5902 5901 5900 5900 5898 5897 5896 5894 5892 5891 5890 5889 5889 5890 5890 5890
5913 5916 5922 5918 5920 5923 5923 5924 5924 5924 5922 5921 5920 5918 5916 5915 5914 5912 5912 5911 5910 5909 5908 5907 5906 5905 5905 5905 5903 5902 5902 5902 5901 5901 5900 5899 5899 5897 5896 5895 5893 5891 5890 5889 5888 5888 5888 5888 5888
5910 5913 5913 5914 5916 5922 5921 5924 5924 5922 5921 5921 5921 5919 5917 5917 5915 5913 5913 5912 5911 5910 5910 5909 5908 5907 5905 5905 5904 5902 5901 5900 5901 5901 5900 5899 5898 5896 5895 5893 5892 5890 5889 5888 5887 5887 5886 5887 5886
5907 5907 5910 5911 5913 5917 5919 5920 5923 5920 5920 5919 5919 5918 5917 5916 5915 5915 5913 5913 5912 5911 5910 5909 5908 5906 5904 5904 5903 5902 5901 5900 5900 5900 5899 5898 5897 5894 5893 5892 5891 5889 5888 5888 5886 5885 5885 5884 5885
5901 5903 5906 5908 5911 5913 5917 5918 5921 5922 5918 5917 5915 5915 5914 5913 5913 5913 5912 5911 5909 5908 5907 5906 5906 5906 5905 5904 5903 5902 5901 5900 5899 5898 5897 5895 5893 5892 5890 5889 5888 5887 5886 5886 5885 5884 5883 5882 5882
5897 5900 5903 5907 5909 5911 5915 5911 5915 5915 5915 5914 5912 5912 5911 5910 5910 5910 5910 5908 5906 5905 5905 5904 5904 5905 5905 5904 5902 5900 5899 5899 5898 5896 5894 5893 5890 5888 5886 5886 5885 5885 5883 5883 5883 5882 5881 5880 5879
5892 5896 5901 5904 5908 5913 5909 5907 5911 5910 5910 5910 5909 5908 5908 5906 5906 5907 5907 5905 5903 5904 5902 5902 5903 5902 5902 5901 5901 5899 5898 5897 5896 5895 5893 5890 5888 5885 5883 5882 5883 5882 5881 5880 5880 5879 5878 5878 5877
5888 5889 5897 5901 5905 5905 5909 5907 5906 5906 5907 5907 5907 5904 5903 5902 5903 5904 5904 5903 5902 5902 5902 5899 5898 5897 5897 5897 5897 5898 5897 5894 5893 5891 5890 5889 5886 5884 5882 5879 5877 5878 5879 5878 5877 5876 5875 5874 5873
5881 5885 5888 5891 5897 5900 5903 5902 5904 5903 5903 5904 5904 5901 5899 5899 5899 5900 5901 5902 5900 5899 5896 5893 5892 5892 5893 5893 5893 5891 5892 5890 5889 5888 5886 5884 5882 5881 5879 5878 5877 5876 5875 5874 5874 5873 5871 5870 5869
5878 5880 5884 5890 5894 5897 5900 5902 5901 5898 5898 5898 5899 5897 5896 5895 5896 5897 5897 5898 5896 5894 5893 5890 5889 5889 5889 5890 5890 5889 5888 5886 5885 5884 5883 5881 5879 5878 5876 5875 5875 5874 5873 5872 5871 5871 5870 5868 5866
5873 5876 5880 5883 5887 5889 5892 5895 5896 5895 5894 5895 5895 5895 5893 5894 5895 5894 5895 5894 5891 5890 5888 5885 5886 5886 5887 5887 5887 5886 5886 5884 5883 5879 5879 5878 5876 5875 5873 5871 5870 5869 5868 5867 5866 5864 5863 5862 5861